• în România
  • Lista ţărilor
  • Pe 7 zile
  • Temperatura apei
  • Hartă satelitară
  • Meteo pe hartă
  • Widget-uri
  • user-avatar
    Intrare

    Meteo pe oră la Brisbane

    Astăzi, 21 Noiembrie, Marţi

    Timp Temperatura Precipitaţii Vânt Presiune Umiditate
    00:00 +18°C° 0,3 mm 4 m/s 762 mmHg 87%
    01:00 +18°C° 0,3 mm 4 m/s 762 mmHg 88%
    02:00 +18°C° 0,3 mm 4 m/s 762 mmHg 88%
    03:00 +17°C° 0,3 mm 4 m/s 762 mmHg 89%
    04:00 +17°C° 0 mm 4 m/s 761 mmHg 89%
    05:00 +18°C° 0,3 mm 4 m/s 762 mmHg 85%
    06:00 +20°C° 0,3 mm 5 m/s 762 mmHg 81%
    07:00 +21°C° 0,3 mm 5 m/s 762 mmHg 77%
    08:00 +22°C° 0,4 mm 5 m/s 762 mmHg 71%
    09:00 +23°C° 0,4 mm 5 m/s 762 mmHg 64%
    10:00 +26°C° 0 mm 5 m/s 762 mmHg 57%
    11:00 +26°C° 0,1 mm 6 m/s 762 mmHg 54%
    12:00 +27°C° 0,1 mm 6 m/s 761 mmHg 50%
    13:00 +28°C° 0,1 mm 6 m/s 761 mmHg 47%
    14:00 +27°C° 0,3 mm 6 m/s 761 mmHg 52%
    15:00 +26°C° 0,3 mm 6 m/s 761 mmHg 56%
    16:00 +24°C° 0 mm 6 m/s 761 mmHg 61%
    17:00 +22°C° 0,2 mm 6 m/s 761 mmHg 66%
    18:00 +21°C° 0,2 mm 5 m/s 761 mmHg 71%
    19:00 +20°C° 0,2 mm 5 m/s 762 mmHg 75%
    20:00 +19°C° 0,1 mm 4 m/s 762 mmHg 77%
    21:00 +19°C° 0,1 mm 4 m/s 762 mmHg 79%
    22:00 +18°C° 0 mm 4 m/s 762 mmHg 83%
    23:00 +18°C° 0,1 mm 4 m/s 761 mmHg 84%

    Mâine, 22 Noiembrie, Miercuri

    Timp Temperatura Precipitaţii Vânt Presiune Umiditate
    00:00 +18°C° 0,1 mm 4 m/s 761 mmHg 86%
    01:00 +17°C° 0,1 mm 3 m/s 760 mmHg 87%
    02:00 +17°C° 0,2 mm 3 m/s 760 mmHg 88%
    03:00 +17°C° 0,2 mm 3 m/s 760 mmHg 88%
    04:00 +17°C° 0,2 mm 3 m/s 760 mmHg 89%
    05:00 +18°C° 0,3 mm 3 m/s 760 mmHg 84%
    06:00 +19°C° 0,3 mm 3 m/s 760 mmHg 80%
    07:00 +20°C° 0,3 mm 3 m/s 761 mmHg 75%
    08:00 +22°C° 0,5 mm 3 m/s 760 mmHg 70%
    09:00 +23°C° 0,5 mm 4 m/s 760 mmHg 65%
    10:00 +26°C° 0,5 mm 4 m/s 760 mmHg 59%
    11:00 +26°C° 0,8 mm 4 m/s 760 mmHg 59%
    12:00 +26°C° 0,8 mm 4 m/s 760 mmHg 60%
    13:00 +26°C° 0,8 mm 4 m/s 759 mmHg 60%
    14:00 +25°C° 0,6 mm 4 m/s 759 mmHg 62%
    15:00 +25°C° 0,6 mm 4 m/s 759 mmHg 64%
    16:00 +24°C° 0,6 mm 3 m/s 759 mmHg 66%
    17:00 +22°C° 0,2 mm 3 m/s 759 mmHg 71%
    18:00 +21°C° 0,2 mm 3 m/s 759 mmHg 75%
    19:00 +20°C° 0,2 mm 2 m/s 760 mmHg 80%
    20:00 +20°C° 0 mm 2 m/s 760 mmHg 81%
    21:00 +19°C° 0 mm 2 m/s 760 mmHg 83%
    22:00 +19°C° 0 mm 2 m/s 761 mmHg 84%
    23:00 +19°C° 0 mm 2 m/s 760 mmHg 85%

    Poimâine, 23 Noiembrie, Joi

    Timp Temperatura Precipitaţii Vânt Presiune Umiditate
    00:00 +18°C° 0 mm 2 m/s 760 mmHg 86%
    01:00 +18°C° 0 mm 2 m/s 759 mmHg 87%
    02:00 +18°C° 0 mm 2 m/s 759 mmHg 87%
    03:00 +18°C° 0 mm 2 m/s 759 mmHg 88%
    04:00 +17°C° 0 mm 3 m/s 759 mmHg 88%
    05:00 +19°C° 0 mm 3 m/s 759 mmHg 84%
    06:00 +20°C° 0 mm 3 m/s 760 mmHg 80%
    07:00 +21°C° 0 mm 3 m/s 760 mmHg 76%
    08:00 +24°C° 0,1 mm 3 m/s 760 mmHg 68%
    09:00 +26°C° 0,1 mm 3 m/s 760 mmHg 60%
    10:00 +28°C° 0,1 mm 3 m/s 760 mmHg 52%
    11:00 +28°C° 0,1 mm 4 m/s 760 mmHg 51%
    12:00 +28°C° 0,1 mm 4 m/s 759 mmHg 50%
    13:00 +29°C° 0,1 mm 4 m/s 758 mmHg 49%
    14:00 +28°C° 0 mm 4 m/s 758 mmHg 51%
    15:00 +28°C° 0 mm 5 m/s 758 mmHg 53%
    16:00 +27°C° 0 mm 5 m/s 758 mmHg 55%
    17:00 +26°C° 0 mm 4 m/s 758 mmHg 62%
    18:00 +23°C° 0 mm 4 m/s 759 mmHg 70%
    19:00 +22°C° 0 mm 3 m/s 759 mmHg 77%
    20:00 +21°C° 0 mm 3 m/s 760 mmHg 80%
    21:00 +21°C° 0 mm 2 m/s 760 mmHg 83%
    22:00 +20°C° 0 mm 2 m/s 761 mmHg 86%
    23:00 +20°C° 0 mm 2 m/s 760 mmHg 87%

    24 Noiembrie, Vineri

    Timp Temperatura Precipitaţii Vânt Presiune Umiditate
    00:00 +19°C° 0 mm 2 m/s 760 mmHg 88%
    01:00 +19°C° 0 mm 2 m/s 760 mmHg 90%
    02:00 +19°C° 0 mm 2 m/s 760 mmHg 90%
    03:00 +19°C° 0 mm 2 m/s 759 mmHg 91%
    04:00 +18°C° 0 mm 2 m/s 759 mmHg 91%
    05:00 +20°C° 0 mm 2 m/s 760 mmHg 85%
    06:00 +21°C° 0 mm 2 m/s 760 mmHg 79%
    07:00 +24°C° 0 mm 3 m/s 760 mmHg 73%
    08:00 +26°C° 0 mm 3 m/s 760 mmHg 65%
    09:00 +28°C° 0 mm 3 m/s 760 mmHg 57%
    10:00 +30°C° 0 mm 3 m/s 760 mmHg 49%
    11:00 +30°C° 0 mm 3 m/s 760 mmHg 47%
    12:00 +32°C° 0 mm 4 m/s 759 mmHg 45%
    13:00 +32°C° 0 mm 4 m/s 759 mmHg 43%
    14:00 +32°C° 0 mm 4 m/s 758 mmHg 46%
    15:00 +30°C° 0 mm 5 m/s 758 mmHg 50%
    16:00 +29°C° 0 mm 5 m/s 758 mmHg 53%
    17:00 +27°C° 0 mm 4 m/s 759 mmHg 61%
    18:00 +26°C° 0 mm 4 m/s 759 mmHg 69%
    19:00 +24°C° 0 mm 3 m/s 760 mmHg 77%
    20:00 +22°C° 0 mm 3 m/s 760 mmHg 80%
    21:00 +22°C° 0 mm 3 m/s 761 mmHg 84%
    22:00 +21°C° 0 mm 2 m/s 761 mmHg 87%
    23:00 +21°C° 0 mm 2 m/s 761 mmHg 89%

    25 Noiembrie, Sâmbătă

    Timp Temperatura Precipitaţii Vânt Presiune Umiditate
    00:00 +20°C° 0 mm 2 m/s 760 mmHg 91%
    01:00 +20°C° 0 mm 2 m/s 760 mmHg 92%
    02:00 +20°C° 0 mm 2 m/s 760 mmHg 92%
    03:00 +19°C° 0 mm 2 m/s 760 mmHg 93%
    04:00 +19°C° 0 mm 3 m/s 759 mmHg 93%
    05:00 +20°C° 0 mm 3 m/s 760 mmHg 87%
    06:00 +21°C° 0 mm 3 m/s 760 mmHg 82%
    07:00 +24°C° 0 mm 3 m/s 761 mmHg 76%
    08:00 +26°C° 0 mm 3 m/s 760 mmHg 67%
    09:00 +28°C° 0 mm 3 m/s 760 mmHg 57%
    10:00 +30°C° 0 mm 3 m/s 760 mmHg 48%
    11:00 +32°C° 0 mm 4 m/s 760 mmHg 45%
    12:00 +33°C° 0 mm 4 m/s 759 mmHg 43%
    13:00 +33°C° 0 mm 4 m/s 758 mmHg 40%
    14:00 +33°C° 0 mm 5 m/s 758 mmHg 45%
    15:00 +32°C° 0 mm 5 m/s 758 mmHg 49%
    16:00 +30°C° 0 mm 5 m/s 758 mmHg 54%
    17:00 +28°C° 0 mm 5 m/s 758 mmHg 62%
    18:00 +26°C° 0 mm 4 m/s 759 mmHg 70%
    19:00 +25°C° 0 mm 4 m/s 760 mmHg 79%
    20:00 +24°C° 0 mm 3 m/s 760 mmHg 82%
    21:00 +22°C° 0 mm 3 m/s 760 mmHg 86%
    22:00 +22°C° 0 mm 3 m/s 761 mmHg 89%
    23:00 +21°C° 0 mm 3 m/s 760 mmHg 90%

    26 Noiembrie, Duminică

    Timp Temperatura Precipitaţii Vânt Presiune Umiditate
    00:00 +21°C° 0 mm 3 m/s 760 mmHg 91%
    01:00 +21°C° 0 mm 3 m/s 759 mmHg 92%
    02:00 +21°C° 0 mm 3 m/s 759 mmHg 92%
    03:00 +20°C° 0 mm 3 m/s 759 mmHg 92%
    04:00 +20°C° 0 mm 3 m/s 759 mmHg 92%
    05:00 +21°C° 0 mm 3 m/s 759 mmHg 87%
    06:00 +24°C° 0 mm 3 m/s 759 mmHg 81%
    07:00 +25°C° 0 mm 4 m/s 760 mmHg 76%
    08:00 +27°C° 0 mm 4 m/s 760 mmHg 68%
    09:00 +28°C° 0 mm 4 m/s 760 mmHg 61%
    10:00 +30°C° 0 mm 4 m/s 759 mmHg 53%
    11:00 +32°C° 0,1 mm 4 m/s 759 mmHg 51%
    12:00 +32°C° 0,1 mm 4 m/s 758 mmHg 49%
    13:00 +33°C° 0,1 mm 5 m/s 758 mmHg 47%
    14:00 +33°C° 0,1 mm 5 m/s 758 mmHg 50%
    15:00 +32°C° 0,1 mm 5 m/s 758 mmHg 52%
    16:00 +30°C° 0,1 mm 5 m/s 758 mmHg 54%
    17:00 +29°C° 0 mm 5 m/s 758 mmHg 62%
    18:00 +27°C° 0 mm 4 m/s 759 mmHg 70%
    19:00 +26°C° 0 mm 4 m/s 759 mmHg 77%
    20:00 +25°C° 0 mm 4 m/s 759 mmHg 81%
    21:00 +24°C° 0 mm 3 m/s 760 mmHg 85%
    22:00 +24°C° 0 mm 3 m/s 760 mmHg 89%
    23:00 +22°C° 0 mm 3 m/s 759 mmHg 90%
    Arată mai mult